Location: Newark
(54.2500°N, 9.1833°E)
Time: 06:36:51
(UTC+00:00)

Vanguard 1 - Visible Passes

Search period start: 06 December 2019 00:00
Search period end: 16 December 2019 00:00
Orbit: 652 x 3831 km, 34.2° (Epoch: 05 December)

Date Brightness Start Highest point End Pass type
(mag) Time Alt. Az. Time Alt. Az. Time Alt. Az.
06 Dec 14.3 01:54:31 10° SSE 02:02:13 13° SE 02:09:20 10° ESE visible
06 Dec 13.8 04:07:04 10° SSW 04:23:46 28° SSE 04:36:19 10° ESE visible
06 Dec 13.4 06:28:54 10° SW 06:45:43 34° S 06:56:39 10° ESE visible
07 Dec 14.1 02:10:21 10° S 02:22:34 17° SE 02:33:20 10° ESE visible
07 Dec 13.6 04:26:40 10° SW 04:44:27 31° SSE 04:57:27 10° ESE visible
08 Dec 14.0 02:28:03 10° S 02:42:59 22° SE 02:55:45 10° ESE visible
08 Dec 13.5 04:46:38 10° SW 05:05:09 34° SSE 05:18:25 10° ESE visible
09 Dec 13.8 02:46:40 10° SSW 03:03:28 26° SSE 03:17:31 10° ESE visible
09 Dec 13.4 05:06:53 10° SW 05:25:52 37° S 05:39:14 10° ESE visible
10 Dec 14.1 00:53:02 10° SSE 01:02:31 14° SE 01:11:40 10° ESE visible
10 Dec 13.7 03:05:54 10° SSW 03:24:02 31° SSE 03:38:53 10° ESE visible
10 Dec 13.4 05:27:23 10° WSW 05:46:35 38° S 05:59:56 10° ESE visible
11 Dec 14.0 01:13:52 15° SSE 01:22:42 19° SE 01:35:13 10° ESE visible
11 Dec 13.6 03:26:40 12° SSW 03:44:39 34° SSE 04:00:02 10° ESE visible
11 Dec 13.4 05:48:05 10° WSW 06:07:16 38° S 06:20:30 10° SE visible
12 Dec 13.8 01:34:29 19° SSE 01:42:59 24° SE 01:57:31 10° E visible
12 Dec 13.5 03:47:15 13° SW 04:05:19 37° SSE 04:21:00 10° ESE visible
12 Dec 13.4 06:08:56 10° WSW 06:27:54 38° SSW 06:40:58 10° SE visible
13 Dec 13.7 01:54:53 23° S 02:03:21 28° SSE 02:19:15 10° E visible
13 Dec 13.4 04:07:39 13° SW 04:26:02 39° S 04:41:50 10° ESE visible
13 Dec 13.4 06:29:57 10° WSW 06:48:28 36° SSW 07:01:16 10° SE visible
14 Dec 14.0 00:02:24 15° SE 00:02:37 15° SE 00:12:31 10° ESE visible
14 Dec 13.6 02:15:09 26° S 02:23:48 32° SSE 02:40:39 10° E visible
14 Dec 13.4 04:27:54 13° SW 04:46:45 41° S 05:02:34 10° ESE visible
14 Dec 13.5 06:51:05 10° WSW 07:08:56 34° SSW 07:21:24 10° SSE visible
15 Dec 13.9 00:22:33 19° SE 00:22:37 19° SE 00:35:59 10° E visible
15 Dec 13.5 02:35:17 28° SSW 02:44:22 36° SSE 03:01:49 10° ESE visible
15 Dec 13.4 04:48:02 12° WSW 05:07:27 41° S 05:23:10 10° ESE visible
